Погода Усть-Ишим

Погода Усть-Ишим : погода сейчас, прогноз погоды и архив. Всё, что Вы хотите узнать о погоде Усть-Ишим!

Хотите узнать прогноз погоды Усть-Ишим? Тогда Вам сюда: Погода Усть-Ишим

Поиск расширенной информации на нашем сайте:

Другие новости

Новости СМИ2

Главная страница сайта

Новости сайта

03.07.2017

Напоминаем, что на нашем специализированном сайте Метеоцентр.Азия вы можете получить высокодетализированные автоматические прогнозы погоды по пунктам России, СНГ и мира в авиационном формате (включающие направление и скорость ветра, видимость, явления погоды, количество и форму облачности, нижнюю и верхнюю границу облачности).

Рекомендуем: Мебельные фасады из мдф профиля как оформить заказ мебельные фасады на заказ.

Погода Усть-Ишим - сегодня

Время (UTC), дата Ветер
(°,м/с) 
Видим.   Явления Облачность Т
(°С)
Тd
(°С)
f(%) Тe
(°С)
Pmin
(гПа)
dP
(гПа)
Po
(мм)
O2
(г/м3)
Тmin Tmax R s Состояние
почвы
15 18.10.18 020 (С) 4000 м  слаб. ливневой снег  10/10 600 м кучево-дожд. 
[Cb cap]
+0.8 +0.8 100 -2  1001.4  2.2  746  300    +1.7     
18 18.10.18 020 (С) 20000 м  {ливн. осадки}  10/10 300 м 
[Sc]
+0.9 +0.9 100 -1  1003  1.5  747  300           
21 18.10.18 360 (С) 10 км  слаб. морось  10/10 300 м 
[St]
+0.8 +0.8 100 -1  1004.8  1.8  748  301           
00 19.10.18 010 (С) 20000 м  {морось}  10/10 300 м 
[St]
+0.9 +0.9 100 1006.1  1.3  749  301           
03 19.10.18 340 (С) 1000 м  дымка  10/10 300 м 
[St]
+0.8 +0.8 100 1007  0.9  750  301  +0.7    0.5     
06 19.10.18 020 (С) 5000 м  дымка  10/10 300 м 
[St]
+1.4 +1.4 100 +2  1007.7  0.7  751  301           
09 19.10.18 340 (С) 6000 м  дымка  10/10 300 м 
[St]
+1.6 +1.6 100 +2  1008.6  0.9  751  301           
12 19.10.18 280 (З) 9000 м  дымка{ливн. осадки}  10/0 
[]
+1.4 +1.4 100 +2  1009.7  1.2  752  301           
15 19.10.18 260 (З) 10 км  слаб. морось  10/10 300 м 
[St]
+0.9 +0.9 100 +2  1010.8  753  302    +1.8  0.6     
18 19.10.18 240 (ЮЗ) 20000 м  {морось}  10/10 300 м 
[St]
+0.4 +0.4 100 1010.7  0.1  753  303           
21 19.10.18 230 (ЮЗ) 20000 м    10/10 600 м 
[Sc]
+0.3 +0.3 100 1010.6  0.1  753  303           
00 20.10.18 180 (Ю) 20000 м    10/10 600 м 
[Sc]
-0.1 -0.1 100 -1  1009.7  -0.9  752  303           
06 20.10.18 160 (Ю) 1800 м  снег  10/8 300 м средняя 
[Frnb|As op]
+0.1 +0.1 100 -2  1005.8  -2.1  749  302           
09 20.10.18 160 (Ю) 6000 м  слаб. дождь{снег}  10/9 300 м средняя 
[Frnb|As op]
+0.9 +0.9 100 1004.2  -1.6  748  300           
12 20.10.18 170 (Ю) 5000 м  дымка{снег, дождь}  10/10 300 м 
[St]
+1.7 +1.7 100 +2  1003.8  -0.4  748  299           
15 20.10.18 160 (Ю) 2000 м  дымка  10/10 300 м 
[St]
+2.5 +2.5 100 +3  1003.3  -0.4  747  298    +2.5     
18 20.10.18 200 (Ю) 4000 м  дымка{морось}  10/10 300 м 
[St]
+2.9 +2.9 100 +4  1002.2  -1.2  746  297           
21 20.10.18 220 (ЮЗ) 4000 м  дымка  10/10 300 м 
[St]
+2.5 +2.5 100 +2  1001.5  -0.6  746  297           
00 21.10.18 260 (З) 4000 м  дымка  10/10 300 м 
[St]
+2 +2 100 +1  1001.3  -0.2  746  298           
03 21.10.18 300 (СЗ) 50000 м  в посл. час морось  10/8 300 м средняя 
[St|Ac As]
+1.9 +1.6 98 1002.4  747  298  +1.9       
09 21.10.18 290 (З) 10 км  слаб. ливневой снег  10/8 300 м кучево-дожд., средняя 
[Cb cap|Ac As]
+1.2 +0.5 95 -2  1004.6  748  300           
12 21.10.18 290 (З) 2000 м  ливневой снег  10/10 300 м кучево-дожд. 
[Cb cap]
-0.1 -0.1 100 -3  1006.4  1.7  750  302           
15 21.10.18 290 (З) 5{11}  4000 м  слаб. ливневой снег  10/10 300 м кучево-дожд. 
[Cb cap]
-1.2 -1.2 100 -4  1007.7  1.3  751  304    +2.1     
03 22.10.18 290 (З) 9000 м  слаб. снег{ливн. осадки}  10/8 300 м средняя 
[Frnb|As op]
-2.5 -3.2 95 -6  1012.9  1.6  754  307  -2.6    равномерный
сухой снег
100% 
06 22.10.18 300 (СЗ) 9000 м  слаб. снег{ливн. осадки}  10/6 300 м средняя 
[Frnb|As op]
-1.6 -3.1 89 -5  1014.6  1.8  756  307           
Время (UTC), дата Ветер
(°,м/с) 
Видим.   Явления Облачность Т
(°С)
Тd
(°С)
f(%) Тe
(°С)
Pmin
(гПа)
dP
(гПа)
Po
(мм)
O2
(г/м3)
Тmin Tmax R s Состояние
почвы

Для получения пояснительной информации подведите курсор к названию столбца.

ПОГОДА Усть-Ишим - архив

Всё, что Вы хотите узнать о погоде Усть-Ишим - удобно и подробно!

Выберите нужную дату (начиная с 1 января 2015* года) и нажмите кнопку "Найти".
Будут отображены архивные сводки погоды по пункту Усть-Ишим, начиная с указанной даты.


Отображать данные в формате CSV (для использования в таблицах Excel)


Внимание! Наш архив погоды предназначен исключительно для личного некоммерческого использования в познавательных целях. Если Вам необходимы официальные справки о состоянии погоды (для производственных, юридических, коммерческих и т.п. целей), обращайтесь в органы Росгидромета.

*Примечание: данная дата относится к архиву по метеостанциям СССР (Россия, СНГ, Балтия).
Архив по метеостанциям Зарубежной Европы и Азии (кроме Китая) хранится 10 дней, по другим регионам земного шара (Китай, Африка, Америка, Австралия, Океания) - 1 день.

Усть-Ишим - район местоположения метеостанции


Название, широта, долгота, высота метеостанции:
Усть-Ишим 57.7°ш. 71.2°д. 56 м над ур. моря [Российская Федерация]

Дополнительная информация

В oтличие oт бoльшинства пoгoдных сайтoв мы публикуем пoдрoбную метеoинфoрмацию в детальнoм прoфессиoнальнoм фoрмате.

Характеристики температуры и влажнoсти вoздуха измеряются на высoте 2 м в тени вдали oт зданий и деревьев.
Скoрoсть ветра измеряется на высoте 10 м (на урoвне рoста челoвека скoрoсть ветра ниже в 1.5-2 раза). Если метеoстанция нахoдится в гoрoде или в лесу, тo скoрoсть ветра занижена на 2-4 м/с пo сравнению с oткрытым местoм. Скoрoсть ветра над акватoриями крупных рек и oзёр, а также на вершинах хoлмoв на 2-5 м/с выше, чем в oбычных услoвиях.
Атмoсфернoе давление в разных тoчках местнoсти мoжет значительнo oтличаться oт давления на метеoстанции, в зависимoсти oт услoвий рельефа (при пoдъёме на 10 м давление пoнижается примернo на 1 мм рт.ст.).